Time,TemperatureF,DewpointF,PressureIn,WindDirection,WindDirectionDegrees,WindSpeedMPH,WindSpeedGustMPH,Humidity,HourlyPrecipIn,Conditions,Clouds,dailyrainin,SoftwareType,DateUTC
2011-12-15 00:02:00,28.2,24.3,30.05,East,90,0.0,0.0,85,0.00,,,0.02,open2300-1.11,2011-12-15 07:02:00,
2011-12-15 00:17:00,28.4,24.7,30.05,SE,135,0.0,2.0,86,0.00,,,0.02,open2300-1.11,2011-12-15 07:17:00,
2011-12-15 00:32:00,28.0,24.4,30.05,SSE,157,0.0,2.2,86,0.00,,,0.02,open2300-1.11,2011-12-15 07:32:00,
2011-12-15 00:47:00,28.0,24.7,30.04,SSE,157,0.0,2.5,87,0.00,,,0.02,open2300-1.11,2011-12-15 07:47:00,
2011-12-15 01:02:00,28.0,24.7,30.05,SE,135,3.4,3.4,87,0.00,,,0.02,open2300-1.11,2011-12-15 08:02:00,
2011-12-15 01:18:00,28.0,24.4,30.05,East,90,2.5,3.4,86,0.00,,,0.02,open2300-1.11,2011-12-15 08:18:00,
2011-12-15 01:33:00,27.7,23.4,30.05,SSE,157,1.8,4.0,84,0.00,,,0.02,open2300-1.11,2011-12-15 08:33:00,
2011-12-15 01:50:00,27.5,23.0,30.04,SE,135,1.1,4.9,83,0.00,,,0.02,open2300-1.11,2011-12-15 08:50:00,
2011-12-15 02:02:00,27.1,22.6,30.04,ESE,112,5.8,5.8,83,0.00,,,0.00,open2300-1.11,2011-12-15 09:02:00,
2011-12-15 02:17:00,26.8,22.0,30.04,ENE,67,7.2,7.2,82,0.00,,,0.00,open2300-1.11,2011-12-15 09:17:00,
2011-12-15 02:34:00,26.6,21.5,30.04,ESE,112,0.0,7.2,81,0.00,,,0.00,open2300-1.11,2011-12-15 09:34:00,
2011-12-15 02:48:00,26.4,21.3,30.04,SSE,157,0.0,5.6,81,0.00,,,0.00,open2300-1.11,2011-12-15 09:48:00,
2011-12-15 03:02:00,25.9,20.5,30.04,SE,135,0.0,6.5,80,0.00,,,0.00,open2300-1.11,2011-12-15 10:02:00,
2011-12-15 03:17:00,25.7,20.4,30.04,SSE,157,4.0,4.2,80,0.00,,,0.00,open2300-1.11,2011-12-15 10:17:00,
2011-12-15 03:33:00,25.7,20.1,30.04,ESE,112,0.0,6.5,79,0.00,,,0.00,open2300-1.11,2011-12-15 10:33:00,
2011-12-15 03:47:00,25.5,19.6,30.03,ESE,112,0.0,2.5,78,0.00,,,0.00,open2300-1.11,2011-12-15 10:47:00,
2011-12-15 04:02:00,25.3,19.4,30.04,ESE,112,0.0,0.0,78,0.00,,,0.00,open2300-1.11,2011-12-15 11:02:00,
2011-12-15 04:18:00,25.5,19.6,30.03,SE,135,1.3,4.2,78,0.00,,,0.00,open2300-1.11,2011-12-15 11:18:00,
2011-12-15 04:33:00,25.2,19.3,30.03,SSE,157,5.8,5.8,78,0.00,,,0.00,open2300-1.11,2011-12-15 11:33:00,
2011-12-15 04:48:00,25.0,19.1,30.03,ESE,112,0.0,6.7,78,0.00,,,0.00,open2300-1.11,2011-12-15 11:48:00,
2011-12-15 05:03:00,24.6,18.8,30.03,East,90,1.6,5.1,78,0.00,,,0.00,open2300-1.11,2011-12-15 12:03:00,
2011-12-15 05:18:00,24.6,18.8,30.04,ENE,67,0.0,3.6,78,0.00,,,0.00,open2300-1.11,2011-12-15 12:18:00,
2011-12-15 05:32:00,24.4,18.6,30.04,ENE,67,0.0,5.4,78,0.00,,,0.00,open2300-1.11,2011-12-15 12:32:00,
2011-12-15 05:47:00,24.1,18.2,30.04,East,90,3.1,6.7,78,0.00,,,0.00,open2300-1.11,2011-12-15 12:47:00,
2011-12-15 06:04:00,23.7,17.9,30.04,ESE,112,2.0,6.3,78,0.00,,,0.00,open2300-1.11,2011-12-15 13:04:00,
2011-12-15 06:18:00,23.5,17.7,30.05,East,90,2.7,2.7,78,0.00,,,0.00,open2300-1.11,2011-12-15 13:18:00,
2011-12-15 06:32:00,23.4,17.5,30.05,ENE,67,0.0,4.0,78,0.00,,,0.00,open2300-1.11,2011-12-15 13:32:00,
2011-12-15 06:48:00,23.4,17.5,30.05,East,90,0.0,0.0,78,0.00,,,0.00,open2300-1.11,2011-12-15 13:48:00,
2011-12-15 07:03:00,23.2,17.3,30.06,NE,45,4.7,7.2,78,0.00,,,0.00,open2300-1.11,2011-12-15 14:03:00,
2011-12-15 07:17:00,23.0,17.2,30.06,ESE,112,0.0,5.8,78,0.00,,,0.00,open2300-1.11,2011-12-15 14:17:00,
2011-12-15 07:33:00,22.8,17.0,30.05,SE,135,0.0,4.9,78,0.00,,,0.00,open2300-1.11,2011-12-15 14:33:00,
2011-12-15 07:47:00,22.6,16.8,30.06,SE,135,2.0,2.9,78,0.00,,,0.00,open2300-1.11,2011-12-15 14:47:00,
2011-12-15 08:02:00,22.6,16.8,30.07,ESE,112,0.0,5.6,78,0.00,,,0.00,open2300-1.11,2011-12-15 15:02:00,
2011-12-15 08:18:00,23.5,17.7,30.07,South,180,3.6,5.4,78,0.00,,,0.00,open2300-1.11,2011-12-15 15:18:00,
2011-12-15 08:32:00,24.4,18.2,30.07,SE,135,2.7,4.9,77,0.00,,,0.00,open2300-1.11,2011-12-15 15:32:00,
2011-12-15 08:47:00,25.5,19.3,30.07,East,90,0.0,4.7,77,0.00,,,0.00,open2300-1.11,2011-12-15 15:47:00,
2011-12-15 09:03:00,27.3,20.4,30.07,ESE,112,4.0,5.1,75,0.00,,,0.00,open2300-1.11,2011-12-15 16:03:00,
2011-12-15 09:17:00,29.7,22.3,30.07,South,180,0.0,5.1,74,0.00,,,0.00,open2300-1.11,2011-12-15 16:17:00,
2011-12-15 09:32:00,32.7,24.3,30.07,SSW,202,0.0,0.0,71,0.00,,,0.00,open2300-1.11,2011-12-15 16:32:00,
2011-12-15 09:48:00,33.3,23.8,30.08,SE,135,1.1,6.7,68,0.00,,,0.00,open2300-1.11,2011-12-15 16:48:00,
2011-12-15 10:02:00,34.3,24.8,30.08,SSE,157,0.0,2.9,68,0.00,,,0.00,open2300-1.11,2011-12-15 17:02:00,
2011-12-15 10:17:00,35.1,25.2,30.07,SE,135,0.0,5.8,67,0.00,,,0.00,open2300-1.11,2011-12-15 17:17:00,
2011-12-15 10:33:00,36.3,25.7,30.07,ESE,112,5.1,5.1,65,0.00,,,0.00,open2300-1.11,2011-12-15 17:33:00,
2011-12-15 10:47:00,39.0,27.4,30.07,SSE,157,5.1,5.1,63,0.00,,,0.00,open2300-1.11,2011-12-15 17:47:00,
2011-12-15 11:03:00,39.9,27.9,30.07,South,180,1.1,5.1,62,0.00,,,0.00,open2300-1.11,2011-12-15 18:03:00,
2011-12-15 11:18:00,42.3,28.9,30.06,South,180,0.0,1.1,59,0.00,,,0.00,open2300-1.11,2011-12-15 18:18:00,
2011-12-15 11:32:00,44.4,30.6,30.05,WSW,247,2.2,6.0,58,0.00,,,0.00,open2300-1.11,2011-12-15 18:32:00,
2011-12-15 11:47:00,45.5,30.2,30.05,WNW,292,0.0,5.8,55,0.00,,,0.00,open2300-1.11,2011-12-15 18:47:00,
2011-12-15 12:03:00,46.4,31.0,30.05,West,270,0.0,5.8,55,0.00,,,0.00,open2300-1.11,2011-12-15 19:03:00,
2011-12-15 12:17:00,47.5,31.1,30.04,WNW,292,4.7,5.1,53,0.00,,,0.00,open2300-1.11,2011-12-15 19:17:00,
2011-12-15 12:32:00,48.6,31.7,30.04,WNW,292,4.2,5.8,52,0.00,,,0.00,open2300-1.11,2011-12-15 19:32:00,
2011-12-15 12:48:00,49.3,31.9,30.04,WSW,247,3.1,4.2,51,0.00,,,0.00,open2300-1.11,2011-12-15 19:48:00,
2011-12-15 13:02:00,49.6,32.3,30.04,WSW,247,0.0,6.0,51,0.00,,,0.00,open2300-1.11,2011-12-15 20:02:00,
2011-12-15 13:17:00,49.3,31.5,30.03,WSW,247,2.0,8.1,50,0.00,,,0.00,open2300-1.11,2011-12-15 20:17:00,
2011-12-15 13:33:00,49.6,32.3,30.03,WSW,247,3.8,3.8,51,0.00,,,0.00,open2300-1.11,2011-12-15 20:33:00,
2011-12-15 13:48:00,50.7,31.7,30.02,WSW,247,0.0,3.8,48,0.00,,,0.00,open2300-1.11,2011-12-15 20:48:00,
2011-12-15 14:03:00,52.2,33.0,30.02,West,270,0.0,0.0,48,0.00,,,0.00,open2300-1.11,2011-12-15 21:03:00,
2011-12-15 14:18:00,52.7,31.8,30.02,WSW,247,0.0,0.0,45,0.00,,,0.00,open2300-1.11,2011-12-15 21:18:00,
2011-12-15 14:32:00,50.5,30.4,30.02,West,270,0.0,0.0,46,0.00,,,0.00,open2300-1.11,2011-12-15 21:32:00,
2011-12-15 14:47:00,47.8,28.4,30.02,West,270,0.0,0.0,47,0.00,,,0.00,open2300-1.11,2011-12-15 21:47:00,
2011-12-15 15:02:00,46.6,27.8,30.02,West,270,0.0,0.0,48,0.00,,,0.00,open2300-1.11,2011-12-15 22:02:00,
2011-12-15 15:17:00,45.7,27.6,30.02,West,270,0.0,0.0,49,0.00,,,0.00,open2300-1.11,2011-12-15 22:17:00,
2011-12-15 15:32:00,45.9,28.3,30.02,West,270,0.0,0.0,50,0.00,,,0.00,open2300-1.11,2011-12-15 22:32:00,
2011-12-15 15:47:00,45.1,27.6,30.03,West,270,0.0,0.0,50,0.00,,,0.00,open2300-1.11,2011-12-15 22:47:00,
2011-12-15 16:02:00,45.5,28.4,30.02,West,270,0.0,0.0,51,0.00,,,0.00,open2300-1.11,2011-12-15 23:02:00,
2011-12-15 16:17:00,48.4,29.5,30.02,West,270,0.0,0.0,48,0.00,,,0.00,open2300-1.11,2011-12-15 23:17:00,
2011-12-15 16:32:00,47.1,27.8,30.03,West,270,0.0,0.0,47,0.00,,,0.00,open2300-1.11,2011-12-15 23:32:00,
2011-12-15 16:47:00,42.6,26.2,30.03,West,270,0.0,0.0,52,0.00,,,0.00,open2300-1.11,2011-12-15 23:47:00,
2011-12-15 17:03:00,40.8,25.3,30.03,West,270,0.0,0.0,54,0.00,,,0.00,open2300-1.11,2011-12-16 00:03:00,
2011-12-15 17:17:00,38.7,24.6,30.04,West,270,0.0,0.0,57,0.00,,,0.00,open2300-1.11,2011-12-16 00:17:00,
2011-12-15 17:32:00,36.7,23.7,30.04,West,270,0.0,0.0,59,0.00,,,0.00,open2300-1.11,2011-12-16 00:32:00,
2011-12-15 17:48:00,35.2,23.5,30.04,West,270,0.0,0.0,62,0.00,,,0.00,open2300-1.11,2011-12-16 00:48:00,
2011-12-15 18:03:00,33.8,22.8,30.04,West,270,0.0,0.0,64,0.00,,,0.00,open2300-1.11,2011-12-16 01:03:00,
2011-12-15 18:17:00,32.5,22.4,30.04,West,270,0.0,0.0,66,0.00,,,0.00,open2300-1.11,2011-12-16 01:17:00,
2011-12-15 18:33:00,31.6,21.9,30.05,West,270,0.0,0.0,67,0.00,,,0.00,open2300-1.11,2011-12-16 01:33:00,
2011-12-15 18:47:00,30.7,21.7,30.06,West,270,0.0,0.0,69,0.00,,,0.00,open2300-1.11,2011-12-16 01:47:00,
2011-12-15 19:02:00,29.7,21.1,30.06,West,270,0.0,0.0,70,0.00,,,0.00,open2300-1.11,2011-12-16 02:02:00,
2011-12-15 19:18:00,29.1,21.2,30.06,West,270,0.0,0.0,72,0.00,,,0.00,open2300-1.11,2011-12-16 02:18:00,
2011-12-15 19:32:00,29.3,22.3,30.06,ESE,112,0.0,6.5,75,0.00,,,0.00,open2300-1.11,2011-12-16 02:32:00,
2011-12-15 19:47:00,29.1,22.1,30.06,East,90,0.0,4.2,75,0.00,,,0.00,open2300-1.11,2011-12-16 02:47:00,
2011-12-15 20:02:00,28.2,21.3,30.07,ENE,67,0.0,0.0,75,0.00,,,0.00,open2300-1.11,2011-12-16 03:02:00,
2011-12-15 20:17:00,28.0,21.1,30.07,ENE,67,0.0,0.0,75,0.00,,,0.00,open2300-1.11,2011-12-16 03:17:00,
2011-12-15 20:32:00,27.5,20.9,30.07,ENE,67,0.0,0.0,76,0.00,,,0.00,open2300-1.11,2011-12-16 03:32:00,
2011-12-15 20:47:00,27.3,21.0,30.08,ENE,67,0.0,0.0,77,0.00,,,0.00,open2300-1.11,2011-12-16 03:47:00,
2011-12-15 21:02:00,27.3,21.0,30.07,East,90,0.0,0.0,77,0.00,,,0.00,open2300-1.11,2011-12-16 04:02:00,
2011-12-15 21:17:00,27.1,20.8,30.08,East,90,0.0,0.0,77,0.00,,,0.00,open2300-1.11,2011-12-16 04:17:00,
2011-12-15 21:33:00,26.4,20.4,30.08,East,90,0.0,0.0,78,0.00,,,0.00,open2300-1.11,2011-12-16 04:33:00,
2011-12-15 21:47:00,25.9,20.2,30.09,East,90,0.0,0.0,79,0.00,,,0.00,open2300-1.11,2011-12-16 04:47:00,
2011-12-15 22:02:00,25.5,19.6,30.09,East,90,0.0,0.0,78,0.00,,,0.00,open2300-1.11,2011-12-16 05:02:00,
2011-12-15 22:18:00,25.3,19.7,30.09,East,90,0.0,0.0,79,0.00,,,0.00,open2300-1.11,2011-12-16 05:18:00,
2011-12-15 22:32:00,25.3,20.1,30.09,East,90,0.0,0.0,80,0.00,,,0.00,open2300-1.11,2011-12-16 05:32:00,
2011-12-15 22:47:00,25.2,19.9,30.09,East,90,0.0,0.0,80,0.00,,,0.00,open2300-1.11,2011-12-16 05:47:00,
2011-12-15 23:03:00,25.2,19.9,30.10,East,90,0.0,0.0,80,0.00,,,0.00,open2300-1.11,2011-12-16 06:03:00,
2011-12-15 23:17:00,25.5,20.2,30.10,ESE,112,0.0,0.0,80,0.00,,,0.00,open2300-1.11,2011-12-16 06:17:00,
2011-12-15 23:32:00,27.1,21.7,30.09,East,90,2.2,6.5,80,0.00,,,0.00,open2300-1.11,2011-12-16 06:32:00,
2011-12-15 23:48:00,28.2,21.9,30.10,East,90,9.2,12.3,77,0.00,,,0.00,open2300-1.11,2011-12-16 06:48:00,